1495350000.86,45204,17.19,74072.5,4.87,1.79,1.79,0,*71
1495350002.09,45205,17.19,74074.0,4.85,1.63,1.55,0,*77
1495350003.31,45206,17.19,74072.5,4.85,1.89,2.01,0,*72
1495350004.54,45207,17.19,74072.3,4.85,2.25,2.39,0,*7D
1495350005.76,45208,17.19,74074.3,4.85,1.89,1.89,0,*7F
1495350007.0,45209,17.19,74068.3,4.87,1.51,1.51,0,*7C
1495350008.18,45210,17.19,74070.5,4.85,1.75,1.75,0,*76
1495350009.38,45211,17.19,74068.3,4.85,2.13,2.27,0,*70
1495350010.59,45212,17.19,74066.3,4.85,2.17,2.35,0,*74
1495350011.79,45213,17.19,74070.0,4.85,2.27,2.47,0,*73
1495350013.02,45214,17.19,74070.3,4.87,2.17,2.27,0,*73
1495350014.22,45215,17.19,74066.8,4.85,1.83,2.01,0,*7A
1495350015.47,45216,17.19,74064.3,4.87,2.05,2.25,0,*70
1495350016.7,45217,17.19,74062.8,4.85,2.13,2.25,0,*74
1495350017.87,45218,17.19,74062.3,4.85,2.27,2.35,0,*7D
1495350019.08,45219,17.19,74064.0,4.85,2.17,2.27,0,*7C
1495350020.28,45220,17.19,74068.3,4.85,2.35,2.47,0,*70
1495350021.5,45221,17.19,74068.3,4.87,2.25,2.35,0,*77
1495350022.74,45222,17.19,74070.3,4.87,2.17,2.27,0,*76
1495350023.99,45223,17.19,74066.5,4.87,1.93,2.01,0,*7C
1495350025.22,45224,17.19,74060.5,4.87,2.17,2.27,0,*70
1495350026.45,45225,17.19,74068.0,4.87,2.35,2.39,0,*7E
1495350027.7,45226,17.19,74078.0,4.87,1.67,1.67,0,*71
1495350028.9,45227,17.19,74076.0,4.85,2.35,2.47,0,*77
1495350030.15,45228,17.19,74078.5,4.87,2.39,2.59,0,*79
1495350031.39,45229,17.19,74084.3,4.87,2.51,2.61,0,*7D
1495350032.64,45230,17.19,74080.0,4.87,2.25,2.39,0,*7B
1495350033.87,45231,17.19,74074.0,4.87,2.35,2.47,0,*72
1495350035.1,45232,17.19,74068.3,4.87,2.25,2.35,0,*75
1495350036.32,45233,17.19,74064.3,4.89,2.05,2.17,0,*78
1495350037.54,45234,17.19,74070.0,4.89,2.05,2.09,0,*70
1495350038.76,45235,17.19,74072.8,4.89,2.09,2.21,0,*77
1495350039.99,45236,17.19,74082.0,4.89,2.17,2.21,0,*7B
1495350041.21,45237,17.19,74080.5,4.91,2.35,2.47,0,*73
1495350042.42,45238,17.19,74080.8,4.89,2.51,2.61,0,*73
1495350043.67,45239,17.19,74078.5,4.91,2.13,2.25,0,*7D
1495350044.9,45240,17.19,74066.5,4.89,2.39,2.51,0,*71
1495350046.07,45241,17.19,74066.5,4.89,2.31,2.31,0,*7E
1495350047.29,45242,17.19,74070.8,4.91,2.35,2.55,0,*72
1495350048.54,45243,17.19,74068.8,4.91,2.59,2.73,0,*7D
1495350049.79,45244,17.19,74072.3,4.91,2.59,2.73,0,*7A
1495350051.01,45245,17.19,74060.8,4.91,2.73,2.91,0,*7F
1495350052.22,45246,17.19,74062.5,4.95,2.85,2.99,0,*79
1495350053.45,45247,17.19,74062.0,4.93,2.65,2.73,0,*74
1495350054.71,45248,17.19,74072.0,4.93,2.59,2.69,0,*7F
1495350055.92,45249,17.19,74086.5,4.95,2.61,2.77,0,*7C
1495350057.13,45250,17.19,74080.5,4.95,2.61,2.77,0,*74
1495350058.36,45251,17.19,74078.0,4.95,2.59,2.59,0,*72
1495350059.59,45252,17.19,74070.8,4.95,2.01,2.05,0,*75
1495350060.83,45253,17.19,74070.8,4.95,2.39,2.59,0,*76
1495350062.07,45254,17.19,74070.8,4.95,2.47,2.51,0,*70
1495350063.29,45255,17.19,74062.8,4.97,2.35,2.47,0,*71
1495350064.55,45256,17.19,74060.0,4.97,2.01,2.05,0,*73
1495350065.78,45257,17.19,74054.5,4.99,2.39,2.43,0,*75
1495350066.99,45258,17.19,74054.3,4.99,2.61,2.77,0,*70
1495350068.24,45259,17.19,74062.8,5.01,2.47,2.55,0,*75
1495350069.47,45260,17.19,74058.5,4.99,1.97,1.89,0,*73
1495350070.71,45261,17.19,74054.8,4.97,0.59,0.55,0,*7F
1495350071.93,45262,17.19,74050.8,4.95,0.29,0.21,0,*7A
1495350073.15,45263,17.19,74056.0,4.95,0.91,0.95,0,*77
1495350074.36,45264,17.19,74056.0,4.93,1.75,1.83,0,*7B
1495350075.6,45265,17.19,74054.5,4.95,2.01,2.17,0,*72
1495350076.81,45266,17.19,74056.3,4.93,1.75,1.83,0,*79
1495350078.07,45267,17.19,74058.5,4.93,2.09,2.09,0,*71
1495350079.32,45268,17.19,74062.5,4.93,1.89,2.09,0,*75
1495350080.58,45269,17.19,74064.3,4.93,1.63,1.63,0,*7F
1495350081.84,45270,17.19,74070.3,4.93,1.71,1.85,0,*7C
1495350083.07,45271,17.19,74070.3,4.93,2.25,2.35,0,*77
1495350084.27,45272,17.19,74072.5,4.93,2.35,2.35,0,*75
1495350085.53,45273,17.19,74072.5,4.93,2.13,2.13,0,*74
1495350086.8,45274,17.19,74066.0,4.93,1.85,1.85,0,*73
1495350088.01,45275,17.19,74060.3,4.93,1.83,1.75,0,*7B
1495350089.27,45276,17.19,74064.5,4.93,2.01,2.13,0,*72
1495350090.5,45277,17.19,74062.3,4.93,2.31,2.43,0,*75
1495350091.72,45278,17.19,74060.3,4.95,2.51,2.61,0,*7A
1495350092.95,45279,17.19,74070.3,4.95,2.47,2.59,0,*77
1495350094.19,45280,17.19,74066.8,4.95,2.47,2.69,0,*72
1495350095.41,45281,17.19,74070.3,4.95,2.73,2.77,0,*7B
1495350096.65,45282,17.19,74064.5,4.93,2.65,2.73,0,*7D
1495350097.88,45283,17.19,74066.8,4.95,2.25,2.25,0,*7D
1495350099.11,45284,17.19,74074.0,4.95,2.25,2.47,0,*7E
1495350100.34,45285,17.19,74066.0,4.97,2.25,2.35,0,*78
1495350101.57,45286,17.19,74062.5,4.97,2.39,2.61,0,*77
1495350102.79,45287,17.19,74060.5,4.97,2.25,2.35,0,*7A
1495350104.05,45288,17.19,74062.5,4.97,2.01,2.05,0,*70
1495350105.29,45289,17.19,74062.5,4.97,1.85,1.89,0,*79
1495350106.55,45290,17.19,74060.3,4.97,2.25,2.47,0,*79
1495350107.8,45291,17.19,74060.3,4.97,2.47,2.69,0,*70
1495350108.99,45292,17.19,74056.8,4.99,2.21,2.31,0,*70
1495350110.25,45293,17.19,74058.8,4.97,2.13,2.17,0,*7A
1495350111.45,45294,17.19,74058.8,4.99,2.21,2.27,0,*71
1495350112.66,45295,17.19,74054.8,4.99,2.17,2.27,0,*75
1495350113.89,45296,17.19,74058.0,4.99,1.97,2.05,0,*7D
1495350115.1,45297,17.19,74052.8,4.99,2.17,2.31,0,*70
1495350116.36,45298,17.19,74054.8,4.97,2.01,2.13,0,*76
1495350117.61,45299,17.19,74050.5,4.97,2.13,2.17,0,*70
1495350118.81,45300,17.19,74050.3,4.99,2.21,2.31,0,*7A
1495350120.06,45301,17.19,74050.8,4.97,2.01,2.13,0,*77
1495350121.29,45302,17.19,74050.8,4.97,1.75,1.85,0,*78
1495350122.49,45303,17.19,74050.5,4.99,1.83,1.89,0,*72
1495350123.69,45304,17.19,74046.3,4.99,1.83,1.89,0,*75
1495350124.89,45305,17.19,74050.3,4.97,1.75,1.79,0,*7C
1495350126.11,45306,17.19,74050.8,4.97,1.41,1.43,0,*71
1495350127.35,45307,17.19,74050.3,4.95,1.55,1.55,0,*70
1495350128.58,45308,17.19,74054.0,4.95,1.55,1.63,0,*7A
1495350129.79,45309,17.19,74052.8,4.95,1.79,1.71,0,*76
1495350131.03,45310,17.19,74054.5,4.93,1.59,1.59,0,*70
1495350132.27,45311,17.19,74056.8,4.93,1.63,1.75,0,*76
1495350133.53,45312,17.19,74056.3,4.93,2.09,2.13,0,*79
1495350134.76,45313,17.19,74058.3,4.93,1.75,1.71,0,*77
1495350135.98,45314,17.19,74054.5,4.93,1.41,1.47,0,*72
1495350137.21,45315,17.19,74052.0,4.91,1.37,1.41,0,*76
1495350138.44,45316,17.19,74056.5,4.89,1.25,1.33,0,*7A
1495350139.61,45317,17.19,74056.0,4.89,1.83,1.83,0,*7C
1495350140.85,45318,17.19,74052.5,4.91,1.89,1.97,0,*75
1495350142.1,45319,17.19,74066.5,4.91,1.97,2.01,0,*77
1495350143.32,45320,17.19,74064.3,4.91,2.21,2.31,0,*70
1495350144.55,45321,17.19,74066.0,4.89,2.05,2.17,0,*7A
1495350145.8,45322,17.19,74064.0,4.91,1.97,2.05,0,*7B
1495350147.03,45323,17.19,74060.8,4.89,1.25,1.33,0,*7C
1495350148.26,45324,17.19,74056.8,4.89,1.13,1.13,0,*7C
1495350149.48,45325,17.19,74048.3,4.89,1.33,1.25,0,*7A
1495350150.75,45326,17.19,74048.5,4.87,1.29,1.29,0,*70
1495350151.97,45327,17.19,74044.3,4.87,1.75,1.89,0,*72
1495350153.22,45328,17.19,74048.3,4.87,1.63,1.67,0,*7A
1495350154.41,45329,17.19,74052.3,4.85,1.41,1.43,0,*7F
1495350155.59,45330,17.19,74046.5,4.85,1.01,1.01,0,*75
1495350156.78,45331,17.19,74048.5,4.85,1.43,1.41,0,*76
1495350158.0,45332,17.19,74048.3,4.85,1.63,1.63,0,*77
1495350159.21,45333,17.19,74046.8,4.81,1.79,1.85,0,*71
1495350160.43,45334,17.19,74046.0,4.81,1.71,1.63,0,*76
1495350161.66,45335,17.19,74058.8,4.81,1.51,1.51,0,*74
1495350162.86,45336,17.19,74050.0,4.81,1.75,1.85,0,*78
1495350164.08,45337,17.19,74054.3,4.81,1.89,1.97,0,*79
1495350165.28,45338,17.19,74064.8,4.81,1.71,1.75,0,*7D
1495350166.48,45339,17.19,74062.0,4.81,1.79,1.71,0,*70
1495350167.68,45340,17.19,74052.3,4.81,1.75,1.63,0,*71
1495350168.9,45341,17.19,74036.3,4.79,1.41,1.59,0,*79
1495350170.13,45342,17.19,74034.8,4.81,1.97,1.97,0,*74
1495350171.33,45343,17.19,74040.0,4.79,1.79,1.75,0,*7E
1495350172.57,45344,17.19,74036.5,4.79,1.75,1.85,0,*7A
1495350173.82,45345,17.19,74050.8,4.79,1.25,1.17,0,*75
1495350175.05,45346,17.19,74052.8,4.77,1.59,1.67,0,*74
1495350176.28,45347,17.19,74054.5,4.77,1.55,1.67,0,*79
1495350177.51,45348,17.19,74054.3,4.77,1.25,1.21,0,*73
1495350178.74,45349,17.19,74058.5,4.77,1.55,1.43,0,*71
1495350179.99,45350,17.19,74048.8,4.75,1.67,1.67,0,*7C
1495350181.21,45351,17.19,74050.5,4.77,1.71,1.71,0,*7F
1495350182.39,45352,17.19,74044.0,4.77,1.75,1.83,0,*75
1495350183.65,45353,17.19,74040.8,4.75,1.29,1.29,0,*7F
1495350184.9,45354,17.19,74042.3,4.75,1.63,1.63,0,*78
1495350186.16,45355,17.19,74046.0,4.75,1.55,1.51,0,*7D
1495350187.41,45356,17.19,74050.8,4.75,1.89,2.01,0,*79
1495350188.62,45357,17.19,74054.0,4.75,1.79,1.83,0,*7E
1495350189.86,45358,17.19,74054.8,4.75,1.89,2.01,0,*77
1495350191.12,45359,17.19,74058.5,4.75,2.25,2.39,0,*78
1495350192.37,45360,17.19,74058.8,4.75,1.89,2.01,0,*7C
1495350193.6,45361,17.19,74060.8,4.77,1.97,1.97,0,*7C
1495350194.82,45362,17.19,74048.0,4.77,1.47,1.55,0,*7C
1495350196.08,45363,17.19,74046.0,4.75,1.29,1.33,0,*77
1495350197.29,45364,17.19,74058.3,4.75,1.79,1.83,0,*7E
1495350198.52,45365,17.19,74046.8,4.75,1.71,1.79,0,*72
1495350199.72,45366,17.19,74034.0,4.73,1.79,1.89,0,*70
1495350200.94,45367,17.19,74046.5,4.73,2.13,2.25,0,*7B
1495350202.17,45368,17.19,74052.3,4.73,1.93,2.01,0,*79
1495350203.42,45369,17.19,74048.8,4.75,1.63,1.63,0,*76
1495350204.64,45370,17.19,74056.0,4.75,1.83,1.89,0,*74
1495350205.89,45371,17.19,74060.5,4.75,1.89,2.01,0,*7C
1495350207.11,45372,17.19,74056.3,4.77,1.43,1.43,0,*7E
1495350208.36,45373,17.19,74054.3,4.75,1.89,2.01,0,*7E
1495350209.61,45374,17.19,74054.3,4.75,2.13,2.21,0,*7B
1495350210.81,45375,17.19,74048.3,4.75,1.83,1.79,0,*7E
1495350212.06,45376,17.19,74040.0,4.75,1.43,1.51,0,*7B
1495350213.31,45377,17.19,74040.5,4.75,1.63,1.63,0,*79
1495350214.53,45378,17.19,74044.0,4.75,1.83,1.89,0,*7C
1495350215.76,45379,17.19,74048.5,4.73,2.01,2.01,0,*71
1495350216.93,45380,17.19,74046.3,4.73,1.79,1.83,0,*72
1495350218.11,45381,17.19,74042.0,4.73,1.79,1.79,0,*76
1495350219.34,45382,17.19,74052.0,4.75,1.79,1.89,0,*7C
1495350220.57,45383,17.19,74046.3,4.75,1.71,1.83,0,*7F
1495350221.82,45384,17.19,74042.8,4.75,1.43,1.51,0,*76
1495350223.05,45385,17.19,74046.3,4.73,1.29,1.21,0,*7A
1495350224.26,45386,17.19,74058.5,4.73,1.63,1.83,0,*7F
1495350225.48,45387,17.19,74054.8,4.73,1.55,1.63,0,*75
1495350226.71,45388,17.19,74052.5,4.73,1.71,1.67,0,*78
1495350227.93,45389,17.19,74046.5,4.73,1.63,1.67,0,*7A
1495350229.15,45390,17.19,74062.8,4.73,1.43,1.51,0,*75
1495350230.37,45391,17.19,74064.3,4.73,1.67,1.67,0,*77
1495350231.6,45392,17.19,74060.3,4.73,1.67,1.67,0,*74
1495350232.83,45393,17.19,74052.0,4.73,1.29,1.33,0,*7E
1495350234.06,45394,17.19,74052.8,4.69,1.25,1.25,0,*79
1495350235.26,45395,17.19,74054.0,4.69,1.63,1.75,0,*7F
1495350236.49,45396,17.19,74056.8,4.69,1.89,2.09,0,*70
1495350237.68,45397,17.19,74060.3,4.73,1.83,1.93,0,*70
1495350238.88,45398,17.19,74056.0,4.73,1.83,1.93,0,*7F
1495350240.08,45399,17.19,74054.0,4.69,1.79,1.85,0,*77
1495350241.34,45400,17.19,74058.0,4.67,1.93,2.05,0,*71
1495350242.54,45401,17.19,74048.5,4.69,1.67,1.79,0,*7D
1495350243.76,45402,17.19,74054.0,4.69,1.47,1.51,0,*76
1495350244.99,45403,17.19,74058.3,4.69,1.85,1.85,0,*70
1495350246.21,45404,17.19,74056.8,4.69,1.89,1.89,0,*77
1495350247.44,45405,17.19,74048.0,4.69,1.85,1.97,0,*75
1495350248.7,45406,17.19,74048.5,4.67,1.85,1.85,0,*7B
1495350249.89,45407,17.19,74048.3,4.69,1.79,1.89,0,*7B
1495350251.1,45408,17.19,74052.0,4.69,1.75,1.85,0,*74
1495350252.3,45409,17.19,74054.0,4.69,1.79,1.89,0,*75
1495350253.5,45410,17.19,74064.5,4.69,1.67,1.75,0,*71
1495350254.72,45411,17.19,74066.8,4.69,1.85,1.89,0,*7F
1495350255.93,45412,17.19,74062.3,4.69,1.75,1.85,0,*7F
1495350257.15,45413,17.19,74064.5,4.67,1.63,1.75,0,*78
1495350258.37,45414,17.19,74052.8,4.69,1.47,1.47,0,*76
1495350259.6,45415,17.19,74052.0,4.69,1.85,1.97,0,*74
1495350260.8,45416,17.19,74048.0,4.69,1.67,1.75,0,*77
1495350262.06,45417,17.19,74042.5,4.67,1.33,1.33,0,*7B
1495350263.32,45418,17.19,74046.8,4.67,1.63,1.63,0,*74
1495350264.55,45419,17.19,74048.8,4.67,1.71,1.75,0,*71
1495350265.78,45420,17.19,74050.5,4.69,1.85,1.85,0,*71
1495350267.01,45421,17.19,74066.0,4.69,1.97,2.09,0,*74
1495350268.24,45422,17.19,74062.3,4.69,2.01,2.09,0,*7B
1495350269.44,45423,17.19,74064.8,4.69,1.59,1.75,0,*7C
1495350270.67,45424,17.19,74064.0,4.69,2.01,2.13,0,*76
1495350271.86,45425,17.19,74056.5,4.69,2.21,2.31,0,*75
1495350273.09,45426,17.19,74052.5,4.69,1.85,1.85,0,*77
1495350274.29,45427,17.19,74066.3,4.69,1.83,1.93,0,*77
1495350275.52,45428,17.19,74058.3,4.69,1.97,2.01,0,*75
1495350276.74,45429,17.19,74064.5,4.69,2.21,2.25,0,*7C
1495350277.97,45430,17.19,74064.5,4.69,2.43,2.47,0,*74
1495350279.2,45431,17.19,74050.3,4.67,1.83,1.85,0,*79
1495350280.43,45432,17.19,74044.8,4.69,1.97,2.01,0,*7E
1495350281.63,45433,17.19,74054.0,4.73,2.35,2.51,0,*7A
1495350282.86,45434,17.19,74058.0,4.73,2.05,2.25,0,*7D
1495350284.06,45435,17.19,74054.8,4.73,2.27,2.39,0,*71
1495350285.27,45436,17.19,74052.8,4.73,2.17,2.27,0,*7E
1495350286.5,45437,17.19,74060.8,4.73,2.39,2.39,0,*7C
1495350287.73,45438,17.19,74056.0,4.73,2.05,2.13,0,*74
1495350288.95,45439,17.19,74052.3,4.73,2.55,2.55,0,*72
1495350290.18,45440,17.19,74058.3,4.73,2.01,2.13,0,*7F
1495350291.41,45441,17.19,74054.3,4.73,1.93,2.05,0,*71
1495350292.61,45442,17.19,74052.5,4.73,2.17,2.27,0,*7D
1495350293.81,45443,17.19,74050.0,4.77,2.21,2.31,0,*7A
1495350295.04,45444,17.19,74042.8,4.75,1.71,1.79,0,*76
1495350296.29,45445,17.19,74042.0,4.75,1.89,2.01,0,*7C
1495350297.54,45446,17.19,74040.5,4.75,1.93,2.05,0,*70
1495350298.79,45447,17.19,74060.5,4.75,1.93,2.01,0,*75
1495350300.05,45448,17.19,74070.0,4.75,1.93,2.01,0,*7A
1495350301.22,45449,17.19,74064.5,4.73,1.79,1.83,0,*70
1495350302.45,45450,17.19,74066.8,4.73,1.93,2.05,0,*71
1495350303.68,45451,17.19,74056.5,4.73,2.13,2.25,0,*79
1495350304.9,45452,17.19,74054.0,4.75,1.67,1.79,0,*76
1495350306.16,45453,17.19,74050.3,4.75,1.93,2.05,0,*74
1495350307.41,45454,17.19,74048.8,4.75,1.89,2.01,0,*7C
1495350308.66,45455,17.19,74056.3,4.75,2.17,2.25,0,*7F
1495350309.86,45456,17.19,74048.3,4.77,2.21,2.27,0,*79
1495350311.09,45457,17.19,74052.0,4.77,2.09,2.21,0,*74
1495350312.32,45458,17.19,74050.0,4.77,1.97,1.97,0,*71
1495350313.55,45459,17.19,74050.5,4.77,1.85,1.85,0,*70
1495350314.8,45460,17.19,74052.8,4.75,1.63,1.67,0,*7C
1495350316.05,45461,17.19,74054.8,4.75,1.71,1.89,0,*7E
1495350317.28,45462,17.19,74056.8,4.77,1.85,1.93,0,*7F
1495350318.54,45463,17.19,74062.8,4.79,1.97,2.09,0,*73
1495350319.76,45464,17.19,74064.3,4.77,2.05,2.21,0,*78
1495350321.02,45465,17.19,74064.5,4.75,2.05,2.17,0,*7E
1495350322.24,45466,17.19,74066.5,4.75,1.83,1.93,0,*7F
1495350323.47,45467,17.19,74068.5,4.77,2.05,2.17,0,*7E
1495350324.7,45468,17.19,74070.5,4.77,1.97,1.97,0,*72
1495350325.94,45469,17.19,74070.3,4.77,2.05,2.17,0,*70
1495350327.16,45470,17.19,74066.0,4.77,1.59,1.59,0,*7B
1495350328.39,45471,17.19,74058.5,4.77,2.09,2.17,0,*75
1495350329.62,45472,17.19,74058.0,4.77,2.09,2.17,0,*76
1495350330.83,45473,17.19,74056.5,4.77,2.17,2.27,0,*7B
1495350332.03,45474,17.19,74056.0,4.77,2.21,2.31,0,*7E
1495350333.24,45475,17.19,74054.8,4.77,2.31,2.51,0,*78
1495350334.47,45476,17.19,74058.8,4.79,2.35,2.47,0,*76
1495350335.72,45477,17.19,74062.0,4.79,2.47,2.55,0,*71
1495350336.96,45478,17.19,74064.5,4.79,2.47,2.61,0,*79
1495350338.18,45479,17.19,74064.5,4.79,2.25,2.35,0,*7D
1495350339.38,45480,17.19,74066.0,4.81,2.25,2.31,0,*78
1495350340.61,45481,17.19,74066.0,4.81,2.43,2.43,0,*7C
1495350341.83,45482,17.19,74062.0,4.81,2.55,2.55,0,*7F
1495350343.07,45483,17.19,74064.3,4.79,2.59,2.61,0,*72
1495350344.27,45484,17.19,74056.3,4.81,2.55,2.61,0,*7E
1495350345.51,45485,17.19,74048.8,4.85,2.17,2.17,0,*7C
1495350346.71,45486,17.19,74060.5,4.85,2.27,2.47,0,*79
1495350347.92,45487,17.19,74070.3,4.85,2.27,2.39,0,*71
1495350349.12,45488,17.19,74068.5,4.85,2.35,2.47,0,*74
1495350350.37,45489,17.19,74070.8,4.87,2.39,2.51,0,*7C
1495350351.58,45490,17.19,74072.8,4.85,2.51,2.65,0,*7F
1495350352.84,45491,17.19,74080.3,4.87,2.39,2.51,0,*75
1495350354.1,45492,17.19,74074.5,4.87,2.17,2.25,0,*79
1495350355.31,45493,17.19,74066.5,4.87,1.75,1.75,0,*79
1495350356.54,45494,17.19,74064.3,4.85,2.05,2.17,0,*7F
1495350357.79,45495,17.19,74062.8,4.87,2.05,2.17,0,*7C
1495350359.05,45496,17.19,74064.8,4.87,2.01,2.05,0,*78
1495350360.25,45497,17.19,74068.0,4.89,2.17,2.27,0,*70
1495350361.5,45498,17.19,74070.8,4.87,2.05,2.05,0,*72
1495350362.76,45499,17.19,74064.5,4.87,2.05,2.17,0,*70
1495350364.01,45500,17.19,74070.0,4.87,2.05,2.17,0,*71
1495350365.27,45501,17.19,74074.8,4.87,1.93,2.01,0,*7B
1495350366.52,45502,17.19,74072.0,4.87,2.25,2.47,0,*74
1495350367.77,45503,17.19,74070.3,4.87,2.05,2.25,0,*73
1495350369.0,45504,17.19,74070.8,4.87,2.27,2.47,0,*70
1495350370.25,45505,17.19,74068.5,4.87,2.39,2.59,0,*71
1495350371.46,45506,17.19,74072.8,4.89,2.31,2.43,0,*7F
1495350372.66,45507,17.19,74072.5,4.89,2.31,2.43,0,*7E
1495350373.86,45508,17.19,74076.0,4.89,2.51,2.61,0,*77
1495350375.06,45509,17.19,74072.3,4.89,2.55,2.65,0,*76
1495350376.29,45510,17.19,74074.3,4.89,2.39,2.51,0,*73
1495350377.55,45511,17.19,74076.8,4.91,2.13,2.13,0,*75
1495350378.79,45512,17.19,74076.8,4.91,1.89,2.01,0,*75
1495350380.05,45513,17.19,74076.3,4.91,2.09,2.13,0,*7C
1495350381.27,45514,17.19,74078.3,4.91,2.35,2.43,0,*71
1495350382.44,45515,17.19,74074.3,4.89,2.27,2.31,0,*7F
1495350383.69,45516,17.19,74076.8,4.91,2.43,2.47,0,*76
1495350384.94,45517,17.19,74078.8,4.91,2.13,2.25,0,*76
1495350386.19,45518,17.19,74078.8,4.91,2.13,2.21,0,*7D
1495350387.44,45519,17.19,74076.5,4.91,2.25,2.43,0,*7D
1495350388.65,45520,17.19,74074.5,4.91,2.21,2.31,0,*76
1495350389.9,45521,17.19,74074.5,4.91,2.21,2.13,0,*77
1495350391.15,45522,17.19,74076.5,4.91,2.47,2.55,0,*76
1495350392.41,45523,17.19,74074.5,4.91,2.01,2.13,0,*77
1495350393.6,45524,17.19,74072.0,4.91,2.31,2.35,0,*77
1495350394.82,45525,17.19,74070.5,4.91,2.21,2.31,0,*73
1495350396.04,45526,17.19,74078.5,4.91,2.21,2.31,0,*70
1495350397.28,45527,17.19,74076.8,4.91,2.13,2.21,0,*71
1495350398.51,45528,17.19,74082.5,4.93,2.35,2.55,0,*7B
1495350399.77,45529,17.19,74082.0,4.93,1.97,2.09,0,*78
1495350401.03,45530,17.19,74086.5,4.93,2.13,2.25,0,*71
1495350402.26,45531,17.19,74084.3,4.93,2.25,2.35,0,*74
1495350403.51,45532,17.19,74082.8,4.93,2.13,2.21,0,*77
1495350404.77,45533,17.19,74080.8,4.93,2.43,2.55,0,*70
1495350406.03,45534,17.19,74084.0,4.93,2.69,2.81,0,*76
1495350407.25,45535,17.19,74082.3,4.95,2.47,2.61,0,*73
1495350408.45,45536,17.19,74076.0,4.95,2.25,2.35,0,*75
1495350409.66,45537,17.19,74076.8,4.95,2.27,2.39,0,*7A
1495350410.89,45538,17.19,74078.5,4.93,2.35,2.47,0,*79
1495350412.1,45539,17.19,74086.0,4.95,2.35,2.51,0,*79
1495350413.33,45540,17.19,74082.0,4.95,2.73,2.77,0,*71
1495350414.57,45541,17.19,74080.0,4.95,2.51,2.59,0,*7C
1495350415.82,45542,17.19,74080.8,4.97,2.17,2.25,0,*74
1495350417.08,45543,17.19,74080.0,4.97,2.39,2.51,0,*7A
1495350418.32,45544,17.19,74080.3,4.97,2.51,2.61,0,*70
1495350419.5,45545,17.19,74078.3,4.99,2.27,2.27,0,*7C
1495350420.75,45546,17.19,74080.8,4.97,2.13,2.13,0,*71
1495350422.0,45547,17.19,74078.5,4.97,2.47,2.69,0,*7C
1495350423.22,45548,17.19,74078.0,4.99,2.65,2.77,0,*72
1495350424.44,45549,17.19,74078.3,4.99,2.73,2.77,0,*74
1495350425.65,45550,17.19,74076.5,4.99,2.61,2.73,0,*7B
1495350426.86,45551,17.19,74074.8,4.99,2.43,2.61,0,*79
1495350428.06,45552,17.19,74072.0,5.01,2.31,2.35,0,*7E
1495350429.32,45553,17.19,74068.0,5.01,2.47,2.59,0,*74
1495350430.54,45554,17.19,74076.3,5.01,2.25,2.35,0,*7D
1495350431.8,45555,17.19,74074.8,5.01,2.43,2.55,0,*7A
1495350433.05,45556,17.19,74076.8,5.01,2.47,2.47,0,*7E
1495350434.3,45557,17.19,74074.5,5.01,1.97,1.97,0,*7F
1495350435.55,45558,17.19,74064.5,5.01,1.97,2.09,0,*74
1495350436.78,45559,17.19,74060.3,5.03,2.09,2.21,0,*79
1495350438.03,45560,17.19,74066.5,5.01,1.63,1.63,0,*7B
1495350439.28,45561,17.19,74068.5,5.01,2.01,2.09,0,*72
1495350440.51,45562,17.19,74070.5,4.99,2.21,2.25,0,*7D
1495350441.74,45563,17.19,74072.0,4.99,2.09,2.17,0,*77
1495350442.95,45564,17.19,74070.5,4.99,2.27,2.39,0,*70
1495350444.18,45565,17.19,74074.8,4.99,2.55,2.51,0,*7A
1495350445.39,45566,17.19,74074.8,4.99,2.27,2.43,0,*7F
1495350446.65,45567,17.19,74072.8,5.01,2.47,2.59,0,*73
1495350447.9,45568,17.19,74074.0,5.01,2.43,2.59,0,*78
1495350449.13,45569,17.19,74078.3,5.01,2.55,2.65,0,*71
1495350450.34,45570,17.19,74078.3,5.03,2.55,2.65,0,*7B
1495350451.59,45571,17.19,74080.8,5.01,2.47,2.59,0,*74
1495350452.82,45572,17.19,74082.3,5.03,2.13,2.21,0,*7B
1495350454.01,45573,17.19,74078.0,5.03,2.21,2.31,0,*7A
1495350455.24,45574,17.19,74068.3,5.03,2.09,2.21,0,*76
1495350456.46,45575,17.19,74068.8,5.03,2.01,2.21,0,*7F
1495350457.67,45576,17.19,74066.5,5.03,2.43,2.65,0,*7A
1495350458.87,45577,17.19,74068.3,5.03,2.35,2.59,0,*75
1495350460.1,45578,17.19,74070.8,5.03,2.25,2.43,0,*70
1495350461.31,45579,17.19,74068.8,5.03,2.55,2.65,0,*72
1495350462.56,45580,17.19,74070.0,5.09,2.85,2.89,0,*71
1495350463.82,45581,17.19,74070.8,5.09,2.39,2.51,0,*72
1495350465.07,45582,17.19,74070.5,5.09,2.69,2.81,0,*79
1495350466.3,45583,17.19,74068.0,5.09,2.89,2.99,0,*7F
1495350467.55,45584,17.19,74064.3,5.09,2.47,2.59,0,*76
1495350468.75,45585,17.19,74068.8,5.11,2.65,2.85,0,*7F
1495350469.93,45586,17.19,74072.5,5.11,2.91,2.91,0,*72
1495350471.13,45587,17.19,74074.5,5.11,2.91,3.03,0,*79
1495350472.36,45588,17.19,74068.5,5.13,2.91,3.07,0,*70
1495350473.58,45589,17.19,74068.8,5.11,2.73,2.89,0,*78
1495350474.81,45590,17.19,74074.5,5.13,2.65,2.77,0,*74
1495350476.06,45591,17.19,74074.5,5.13,2.81,2.89,0,*7E
1495350477.26,45592,17.19,74070.5,5.15,2.89,2.95,0,*7E
1495350478.46,45593,17.19,74072.3,5.15,2.95,3.07,0,*78
1495350479.69,45594,17.19,74074.3,5.17,2.95,3.07,0,*7D
1495350480.91,45595,17.19,74068.8,5.17,2.73,2.91,0,*7A
1495350482.13,45596,17.19,74070.8,5.17,2.81,2.95,0,*70
1495350483.34,45597,17.19,74068.3,5.17,2.91,2.95,0,*70
1495350484.57,45598,17.19,74070.8,5.17,3.11,3.29,0,*70
1495350485.78,45599,17.19,74068.3,5.19,3.29,3.41,0,*7A
1495350487.03,45600,17.19,74056.5,5.21,3.03,3.11,0,*7F
1495350488.22,45601,17.19,74054.5,5.21,2.95,2.99,0,*71
1495350489.43,45602,17.19,74056.8,5.19,2.59,2.61,0,*7E
1495350490.63,45603,17.19,74060.5,5.23,2.85,2.95,0,*7C
1495350491.83,45604,17.19,74056.8,5.23,2.99,3.11,0,*7B
1495350493.05,45605,17.19,74054.8,5.23,2.73,2.89,0,*7E
1495350494.26,45606,17.19,74060.0,5.25,2.55,2.65,0,*7D
1495350495.48,45607,17.19,74064.8,5.25,2.55,2.59,0,*73
1495350496.69,45608,17.19,74070.5,5.25,2.81,2.91,0,*71
1495350497.9,45609,17.19,74068.0,5.25,2.59,2.65,0,*7E
1495350499.12,45610,17.19,74068.0,5.29,3.03,3.11,0,*76
1495350500.35,45611,17.19,74066.0,5.29,3.11,3.23,0,*75
1495350501.55,45612,17.19,74070.5,5.31,2.91,2.95,0,*7A
1495350502.78,45613,17.19,74072.3,5.29,3.03,3.07,0,*72
1495350504.01,45614,17.19,74072.0,5.31,2.91,3.03,0,*72
1495350505.23,45615,17.19,74070.8,5.31,2.73,2.91,0,*75
1495350506.48,45616,17.19,74068.0,5.31,2.69,2.85,0,*78
1495350507.71,45617,17.19,74070.0,5.31,2.61,2.81,0,*75
1495350508.93,45618,17.19,74068.5,5.33,2.77,2.85,0,*7B
1495350510.13,45619,17.19,74068.0,5.33,2.65,2.77,0,*74
1495350511.34,45620,17.19,74068.3,5.33,2.65,2.73,0,*7A
1495350512.59,45621,17.19,74064.8,5.35,2.77,2.89,0,*7B
1495350513.82,45622,17.19,74070.8,5.35,2.95,3.07,0,*73
1495350515.07,45623,17.19,74068.0,5.35,2.89,3.07,0,*7F
1495350516.3,45624,17.19,74064.0,5.35,2.73,2.65,0,*78
1495350517.56,45625,17.19,74062.3,5.35,2.13,2.17,0,*7A
1495350518.79,45626,17.19,74066.3,5.35,2.27,2.43,0,*7F
1495350520.0,45627,17.19,74070.0,5.37,2.55,2.65,0,*7D
1495350521.23,45628,17.19,74066.5,5.37,2.59,2.77,0,*7D
1495350522.46,45629,17.19,74072.0,5.35,2.65,2.77,0,*71
1495350523.71,45630,17.19,74074.5,5.35,2.05,2.05,0,*7A
1495350524.97,45631,17.19,74074.0,5.35,2.25,2.25,0,*7B
1495350526.22,45632,17.19,74064.0,5.35,2.43,2.55,0,*7F
1495350527.47,45633,17.19,74066.0,5.35,2.73,2.85,0,*70
1495350528.69,45634,17.19,74064.0,5.37,2.69,2.77,0,*73
1495350529.95,45635,17.19,74066.8,5.35,2.51,2.55,0,*7B
1495350531.19,45636,17.19,74060.3,5.35,2.51,2.61,0,*7F
1495350532.42,45637,17.19,74064.5,5.35,2.31,2.51,0,*7B
1495350533.66,45638,17.19,74064.8,5.35,2.27,2.39,0,*7D
1495350534.91,45639,17.19,74064.0,5.35,2.05,2.13,0,*74
1495350536.17,45640,17.19,74062.3,5.35,2.51,2.55,0,*79